Location: Silverdale
(47.6506°N, 122.6941°W)
Time: 03:26:53
(UTC+00:00)

Altair - Pass Details

Date: 03 October 2022
Orbit: 1501 x 1682 km, 47.2° (Epoch: 05 December)

Event Time Altitude Azimuth Distance (km) Brightness Sun altitude
Rises 12:21:05 0° 214° (SW) 4,740 - -19.5°
Exits shadow 12:24:04 - 208° (SSW) 3,850 9.2 -19.0°
Reaches altitude 10° 12:24:18 10° 208° (SSW) 3,783 9.2 -18.9°
Maximum altitude 12:33:10 43° 141° (SE) 2,165 8.4 -17.5°
Drops below altitude 10° 12:42:20 10° 75° (ENE) 3,918 11.0 -16.0°
Sets 12:45:44 0° 69° (ENE) 4,923 11.9 -15.4°
